{"data":{"norad_id":62065,"intl_designator":"2024-217J","name":"STARLINK-11474 [DTC]","alt_names":[],"object_type":"PAYLOAD","status":"ACTIVE","operator":null,"country":"US","launch_date":"2024-11-24","launch_site_code":"AFWTR","launch_vehicle":null,"mission":null,"orbit_class":"UNKNOWN","rcs_meters":null,"size_class":null,"mass_kg":null,"dimensions":null,"purposes":["comms"],"wikipedia_slug":null,"has_3d_model":false,"image_url":null,"decayed_at":null,"tle_current":{"epoch":"2026-05-25T03:06:30.184128Z","epoch_age_seconds":59740,"freshness":"FRESH","line1":"1 62065U 24217J   26145.12951602  .00094545  00000+0  77581-3 0  9996","line2":"2 62065  53.1564  54.1146 0000884  97.7157 262.3962 15.69727472 87186","mean_motion":15.69727472,"eccentricity":8.84e-5,"inclination_deg":53.1564,"raan_deg":54.1146,"arg_perigee_deg":97.7157,"mean_anomaly_deg":262.3962,"bstar":0.00077581,"rev_number":8718,"period_min":91.735669132763,"perigee_km":359.08112997173,"apogee_km":360.27237544321,"semimajor_km":6737.8137527075,"source":"CELESTRAK","updated_at":"2026-05-25T13:38:19.531320Z"}}}